Bishopton, United Kingdom

8:29 PM GMT on January 18, 2017 (GMT +0000)
Glasgow

Weather History for EGPF - October, 2014

Change the Weather History Date:

Friday, October 17, 2014

  Actual Average Record
Temperature  
Mean Temperature 56 °F -  
Max Temperature 62 °F 50 °F 62 °F (2001)
Min Temperature 51 °F 39 °F 30 °F (2003)
Degree Days  
Heating Degree Days 8    
Growing Degree Days 6 (Base 50)    
Moisture  
Dew Point 53 °F    
Average Humidity 89    
Maximum Humidity 100    
Minimum Humidity 72    
Precipitation  
Precipitation 0.00 in - - ()
Sea Level Pressure  
Sea Level Pressure 29.57 in    
Wind  
Wind Speed 8 mph ()    
Max Wind Speed 16 mph    
Max Gust Speed -    
Visibility 5.8 miles    
Events Rain    
Averages and records for this station are not official NWS values.
T = Trace of Precipitation, MM = Missing Value Source: Averaged Metar Reports

Daily Weather History Graph

Daily Weather History Graph

Search for Another Location

Airport or City:

Trip Planner

Search our weather history database for the weather conditions in past years. The results will help you decide how hot, cold, wet, or windy it might be!

Date:

Astronomy

Oct. 17, 2014 Rise Set
Actual Time 7:52 AM BST 6:12 PM BST
Civil Twilight 7:14 AM BST 6:50 PM BST
Nautical Twilight 6:31 AM BST 7:33 PM BST
Astronomical Twilight 5:48 AM BST 8:16 PM BST
Moon 12:43 AM BST (10/17) 3:46 PM BST (10/17)
Length of Visible Light 11h 35m
Length of Day
10h 20m
Waning Crescent, 35% of the Moon is Illuminated
Oct 17
Waning Crescent
Oct 23
New
Oct 31
First Quarter
Nov 6
Full
Nov 14
Last Quarter

Hourly Weather History & Observations

Time (BST) Temp. Dew Point Humidity Pressure Visibility Wind Dir Wind Speed Gust Speed Precip Events Conditions
12:20 AM 51.8 °F 50.0 °F 94% 29.53 in 3.1 mi ENE 5.8 mph - N/A Rain Rain
12:50 AM 51.8 °F 50.0 °F 94% 29.50 in 3.1 mi ENE 8.1 mph - N/A Rain Heavy Rain
1:20 AM 51.8 °F 50.0 °F 94% 29.50 in 5.0 mi East 6.9 mph - N/A Rain Light Rain
1:50 AM 51.8 °F 50.0 °F 94% 29.50 in 6.2 mi East 9.2 mph - N/A Rain Light Rain
2:20 AM 51.8 °F 50.0 °F 94% 29.50 in 6.2 mi ENE 8.1 mph - N/A Rain Light Rain
2:50 AM 51.8 °F 50.0 °F 94% 29.50 in 6.2 mi East 8.1 mph - N/A Rain Light Rain
3:20 AM 51.8 °F 50.0 °F 94% 29.50 in 6.2 mi East 8.1 mph - N/A   Mostly Cloudy
3:50 AM 51.8 °F 50.0 °F 94% 29.50 in 6.2 mi ENE 6.9 mph - N/A   Overcast
4:20 AM 51.8 °F 51.8 °F 100% 29.50 in 4.3 mi ENE 6.9 mph - N/A Rain Light Rain
4:50 AM 51.8 °F 51.8 °F 100% 29.53 in 3.1 mi East 9.2 mph - N/A Rain Rain
5:20 AM 51.8 °F 51.8 °F 100% 29.53 in 5.0 mi ENE 9.2 mph - N/A Rain Light Rain
5:50 AM 51.8 °F 51.8 °F 100% 29.53 in 6.2 mi ENE 6.9 mph - N/A Rain Light Rain
5:57 AM - - N/A% - 6.2 mi East 9.2 mph - N/A   Mostly Cloudy
6:20 AM 51.8 °F 51.8 °F 100% 29.53 in 5.0 mi ENE 9.2 mph - N/A   Mostly Cloudy
6:50 AM 51.8 °F 51.8 °F 100% 29.53 in 6.2 mi ENE 6.9 mph - N/A   Mostly Cloudy
7:20 AM 51.8 °F 51.8 °F 100% 29.56 in 6.2 mi East 4.6 mph - N/A   Overcast
7:50 AM 51.8 °F 51.8 °F 100% 29.56 in 3.7 mi NNE 4.6 mph - N/A Rain Light Rain
8:20 AM 51.8 °F 51.8 °F 100% 29.56 in 6.2 mi ENE 5.8 mph - N/A   Overcast
8:50 AM 51.8 °F 51.8 °F 100% 29.59 in 6.2 mi ENE 5.8 mph - N/A   Overcast
9:20 AM 53.6 °F 53.6 °F 100% 29.59 in 6.2 mi ENE 5.8 mph - N/A   Overcast
9:50 AM 53.6 °F 53.6 °F 100% 29.59 in 6.2 mi ENE 4.6 mph - N/A   Mostly Cloudy
10:20 AM 55.4 °F 55.4 °F 100% 29.62 in 6.2 mi East 4.6 mph - N/A   Mostly Cloudy
10:50 AM 59.0 °F 57.2 °F 94% 29.62 in 6.2 mi East 4.6 mph - N/A   Mostly Cloudy
11:20 AM 60.8 °F 55.4 °F 82% 29.65 in 6.2 mi SSE 4.6 mph - N/A   Mostly Cloudy
11:50 AM 60.8 °F 55.4 °F 82% 29.65 in 6.2 mi South 9.2 mph - N/A   Mostly Cloudy
12:20 PM 60.8 °F 53.6 °F 77% 29.65 in 6.2 mi South 11.5 mph - N/A   Mostly Cloudy
12:50 PM 62.6 °F 53.6 °F 72% 29.65 in 6.2 mi South 9.2 mph - N/A   Partly Cloudy
1:20 PM 62.6 °F 53.6 °F 72% 29.62 in 6.2 mi South 10.4 mph - N/A   Partly Cloudy
1:50 PM 62.6 °F 53.6 °F 72% 29.62 in 6.2 mi SSE 11.5 mph - N/A   Mostly Cloudy
2:20 PM 62.6 °F 53.6 °F 72% 29.62 in 6.2 mi SSE 12.7 mph - N/A   Mostly Cloudy
2:50 PM 62.6 °F 53.6 °F 72% 29.62 in 6.2 mi South 10.4 mph - N/A   Mostly Cloudy
3:20 PM 62.6 °F 53.6 °F 72% 29.62 in 6.2 mi South 10.4 mph - N/A   Mostly Cloudy
3:50 PM 60.8 °F 53.6 °F 77% 29.62 in 6.2 mi SSE 9.2 mph - N/A   Mostly Cloudy
4:20 PM 60.8 °F 53.6 °F 77% 29.62 in 6.2 mi SE 6.9 mph - N/A   Scattered Clouds
4:50 PM 60.8 °F 53.6 °F 77% 29.62 in 6.2 mi ESE 6.9 mph - N/A   Overcast
5:20 PM 60.8 °F 53.6 °F 77% 29.62 in 6.2 mi SE 12.7 mph - N/A   Mostly Cloudy
5:50 PM 60.8 °F 53.6 °F 77% 29.62 in 6.2 mi SE 9.2 mph - N/A   Overcast
6:20 PM 59.0 °F 53.6 °F 82% 29.62 in 6.2 mi SE 10.4 mph - N/A   Mostly Cloudy
6:50 PM 59.0 °F 53.6 °F 82% 29.62 in 6.2 mi ESE 10.4 mph - N/A   Mostly Cloudy
7:20 PM 59.0 °F 53.6 °F 82% 29.59 in 6.2 mi ESE 10.4 mph - N/A   Partly Cloudy
7:50 PM 59.0 °F 53.6 °F 82% 29.59 in 6.2 mi ESE 10.4 mph - N/A Rain Light Rain
8:20 PM 59.0 °F 53.6 °F 82% 29.59 in 6.2 mi ESE 9.2 mph - N/A Rain Light Rain
8:50 PM 59.0 °F 55.4 °F 88% 29.56 in 6.2 mi East 11.5 mph - N/A Rain Light Rain
9:20 PM 59.0 °F 53.6 °F 82% 29.56 in 6.2 mi East 11.5 mph - N/A Rain Light Rain
9:50 PM 57.2 °F 55.4 °F 94% 29.53 in 6.2 mi East 12.7 mph - N/A Rain Light Rain
10:20 PM 57.2 °F 55.4 °F 94% 29.50 in 6.2 mi East 12.7 mph - N/A Rain Light Rain
10:50 PM 57.2 °F 55.4 °F 94% 29.50 in 4.3 mi East 13.8 mph - N/A Rain Rain
11:20 PM 57.2 °F 55.4 °F 94% 29.47 in 6.2 mi East 15.0 mph - N/A Rain Light Rain
11:50 PM 57.2 °F 55.4 °F 94% 29.44 in 5.0 mi East 16.1 mph - N/A Rain Light Rain